Theta_e
324 324 324 324 323 322 321 320 320 321 321 321 321 321 321 320 320 320 321 321 322 323 323 323 323 323 323 324 324 325 325 325 325 325 326 326 327 327 327 327 327 327
320 321 321 321 320 320 320 320 320 321 321 320 320 320 320 320 320 320 320 320 320 321 321 322 322 322 322 322 323 323 323 324 323 324 324 325 326 326 326 326 326 326
319 319 319 319 319 319 320 320 320 320 319 319 319 319 319 319 319 319 319 319 319 319 319 320 320 320 320 320 320 320 321 322 322 322 323 324 325 326 326 325 325 325
318 318 319 319 319 319 318 318 318 317 317 317 317 317 316 316 317 317 317 317 317 318 318 318 318 318 318 319 318 318 319 320 320 321 321 323 324 324 324 324 323 324
317 318 317 317 317 316 315 315 315 315 315 315 315 315 315 315 315 315 316 316 316 317 316 317 316 316 316 316 317 316 316 317 318 318 319 321 322 323 323 323 323 323
316 315 315 315 314 314 314 314 314 314 314 314 314 314 314 315 315 315 315 316 315 315 315 315 315 315 314 315 315 315 315 315 316 316 317 318 320 321 322 322 322 322
314 314 313 313 313 313 313 313 313 313 313 313 313 314 314 314 314 314 314 315 315 315 315 315 315 315 315 315 315 315 316 316 315 315 315 315 316 318 320 321 321 322
313 313 313 312 313 312 312 313 313 313 313 313 313 313 313 313 313 313 314 314 314 314 314 314 314 314 314 314 315 315 316 316 317 317 316 316 316 317 318 320 321 322
313 312 312 312 312 312 312 312 312 312 312 312 312 312 312 312 312 312 312 312 312 312 312 312 312 312 313 313 313 314 314 315 316 317 317 317 317 317 318 319 320 321
312 312 312 312 311 311 312 311 311 311 311 311 311 311 311 311 311 311 311 311 311 311 311 311 311 311 311 311 311 312 313 313 314 315 316 317 318 318 318 319 319 320
311 311 311 311 311 311 311 311 311 310 310 310 310 310 310 310 310 310 310 310 310 310 310 310 310 310 310 310 311 311 311 312 312 314 315 316 317 317 318 318 319 319
310 310 310 309 309 309 309 309 309 309 309 309 309 308 308 308 308 308 308 308 308 308 308 308 308 308 309 309 310 310 311 311 312 313 314 315 316 316 317 318 319 319
308 308 308 308 307 308 308 308 307 307 307 307 306 306 306 306 306 306 306 306 306 306 307 307 307 307 308 308 309 309 310 310 311 312 313 313 314 315 315 316 317 318
307 306 306 306 306 306 306 306 306 305 305 305 304 304 304 304 304 304 304 305 305 305 306 306 306 307 307 307 308 308 309 310 311 311 311 312 312 313 313 314 315 316
305 304 304 304 304 304 304 304 304 303 303 303 302 302 302 302 302 303 303 303 304 304 304 305 306 306 305 306 306 307 308 309 310 310 310 311 311 312 313 314 315 316
303 302 302 302 302 302 302 302 301 301 301 301 301 301 301 301 301 301 302 302 302 303 303 304 304 305 304 304 305 306 307 308 309 309 310 311 311 312 313 313 314 316
301 300 301 301 301 301 300 300 300 300 300 300 300 300 300 300 300 300 301 301 301 302 302 302 303 303 303 304 305 305 306 306 308 308 309 310 310 311 311 312 313 314
300 300 300 300 300 300 299 299 299 299 299 299 299 299 299 299 300 300 300 300 301 301 301 301 302 302 302 303 304 304 305 305 306 307 307 308 308 309 309 310 311 312
299 299 299 299 299 299 299 298 298 299 299 298 298 298 298 298 299 299 299 299 300 300 300 300 300 300 301 301 302 303 304 304 305 305 305 306 306 307 307 308 309 310
298 298 298 298 298 298 298 298 298 298 298 298 298 298 298 298 298 298 298 298 298 299 299 299 299 299 299 300 300 301 302 303 303 304 304 304 305 305 306 306 307 308
297 297 297 297 297 297 297 297 298 297 297 297 297 297 297 297 297 297 297 297 298 298 298 298 298 298 298 298 299 299 300 301 301 302 302 302 303 303 304 305 305 306
297 297 297 296 296 297 297 297 297 297 297 296 296 296 296 296 296 296 296 296 296 297 297 297 297 297 297 297 297 298 298 299 300 300 300 301 301 302 302 303 303 304
296 296 296 296 296 296 296 296 296 296 296 296 296 296 296 296 295 296 296 296 296 296 296 296 296 296 296 296 296 296 297 298 298 299 299 299 300 300 301 301 302 302
295 295 295 295 295 295 295 295 295 296 296 295 295 295 295 295 295 295 295 295 295 295 295 295 295 295 295 296 296 296 296 297 297 298 298 299 299 299 300 300 301 301
295 295 295 295 294 294 294 294 295 295 295 295 295 295 295 295 295 295 295 295 295 295 295 295 295 295 295 295 295 296 296 296 296 297 298 298 298 299 299 300 300 301
294 294 294 294 294 294 294 294 294 295 295 295 295 295 295 295 295 295 295 295 295 295 295 295 295 295 295 295 295 295 296 296 296 296 297 298 298 298 298 299 299 300
Wind_Speed
13 13 14 14 15 16 16 16 16 16 16 17 17 18 18 19 19 20 20 19 19 19 19 18 18 18 18 18 18 19 19 19 19 19 18 18 19 19 19 20 21 22
9 10 10 11 12 14 15 15 15 15 16 17 18 19 20 21 21 22 23 23 22 22 22 22 22 22 22 21 20 20 19 20 20 20 20 20 19 19 20 21 23 24
7 8 9 10 11 12 14 14 15 15 16 17 18 19 21 21 22 22 23 24 24 24 24 24 24 24 23 23 22 21 20 21 22 22 22 22 21 21 21 22 23 24
7 8 8 10 11 11 12 13 14 15 15 17 18 19 21 22 22 23 23 23 23 23 23 23 24 23 22 23 22 21 21 21 22 23 23 23 22 22 23 23 23 23
6 7 8 8 9 10 11 12 13 14 14 16 17 18 20 21 21 22 22 23 23 24 24 24 25 25 24 24 24 25 24 23 22 22 22 22 21 21 22 23 25 25
6 6 6 7 8 9 10 11 12 12 13 14 15 16 17 18 19 20 21 22 22 23 24 24 25 25 25 25 25 25 25 24 24 23 22 22 23 22 22 23 25 26
5 5 5 6 8 8 9 10 11 11 12 13 14 14 16 17 18 19 20 21 22 23 23 24 25 25 25 26 25 24 23 23 22 23 23 23 23 23 22 23 24 25
4 4 5 6 7 8 8 9 10 11 12 13 14 15 16 17 18 19 20 20 21 22 22 23 24 24 25 26 26 26 24 23 22 22 23 23 23 23 22 23 25 26
3 3 5 6 7 8 9 10 11 12 13 14 15 16 17 17 18 19 19 20 20 21 21 22 23 23 24 25 25 25 25 23 22 22 22 23 24 24 24 24 25 26
3 5 6 7 8 9 9 11 11 12 13 14 15 16 16 17 18 18 18 19 20 21 22 23 24 24 25 25 25 25 25 24 22 21 21 22 23 24 24 25 26 26
5 6 7 8 8 9 10 10 11 12 13 14 14 15 16 16 17 17 18 19 20 21 22 23 24 25 26 26 26 26 26 26 25 23 21 21 22 23 24 24 25 26
6 7 8 8 9 9 10 10 11 12 13 14 14 15 16 16 17 17 18 19 20 20 21 22 24 25 25 25 26 26 27 28 28 26 24 22 22 23 23 23 24 24
8 8 8 9 9 10 10 11 12 12 13 14 15 15 16 16 17 18 19 19 19 20 21 22 23 24 25 26 26 27 28 29 29 29 27 26 24 24 24 25 25 25
8 8 9 9 9 10 11 11 12 13 14 14 15 16 17 18 19 19 20 20 20 21 21 22 23 25 27 28 29 29 29 29 29 30 29 28 26 26 25 26 26 26
8 8 9 9 9 10 11 12 13 14 15 15 16 18 19 20 20 20 21 21 22 22 23 23 24 25 27 29 30 30 30 29 28 28 28 27 27 26 26 26 26 26
8 9 9 10 11 12 12 13 14 15 16 17 18 19 20 21 21 21 22 23 24 24 24 25 25 26 26 27 28 29 29 28 26 25 25 25 27 27 27 26 26 26
9 10 10 11 12 13 13 14 15 15 16 18 19 20 21 21 22 23 24 25 25 26 26 27 28 28 27 26 26 27 28 28 26 25 24 24 26 27 28 28 27 26
10 10 11 12 12 13 13 14 14 15 17 18 20 21 21 21 22 23 24 25 26 26 27 28 29 31 30 29 28 27 27 27 27 26 26 26 26 27 29 30 29 27
11 10 11 11 12 13 13 13 14 15 17 19 20 20 20 21 22 23 24 25 26 27 28 29 30 31 32 32 31 30 28 27 27 27 27 27 27 28 29 30 30 29
10 10 11 11 12 12 12 12 14 16 17 18 19 19 20 22 23 23 24 25 27 28 29 30 31 32 32 33 33 32 31 29 29 28 28 29 29 29 30 30 31 31
10 10 11 11 11 11 11 13 14 16 17 18 19 19 21 22 22 23 25 26 27 28 29 30 31 32 33 33 33 33 33 32 31 31 31 31 31 31 32 32 32 33
11 11 11 12 12 11 12 13 14 15 16 16 17 18 19 20 21 23 24 25 26 28 29 30 32 33 34 35 35 35 35 34 34 33 33 33 33 33 34 34 34 35
12 12 12 13 12 13 13 14 14 14 14 14 15 16 18 20 21 22 23 24 26 27 29 30 31 33 34 35 36 37 37 37 36 35 35 35 34 34 34 35 35 36
13 13 13 13 13 14 14 14 14 13 13 13 14 15 17 18 19 20 22 23 25 26 27 28 30 32 33 35 36 38 39 40 39 39 38 37 35 34 33 34 35 36
14 14 14 14 14 15 15 14 14 14 13 13 13 14 15 16 18 19 21 22 23 25 25 27 29 31 32 34 36 38 40 41 41 42 41 40 37 35 34 33 34 35
16 16 15 15 15 15 15 15 15 14 14 13 13 14 15 16 18 19 20 21 23 24 25 27 28 30 32 34 35 37 39 40 42 42 42 40 38 36 35 34 34 35
Wind_Direction
302 301 302 304 307 308 310 313 314 316 317 318 317 318 318 316 315 314 313 313 313 313 316 317 317 315 313 312 309 305 301 297 295 295 296 295 293 291 287 287 287 286
305 305 308 310 311 313 316 318 319 318 316 314 313 313 313 312 311 309 309 309 310 310 311 311 311 311 311 311 312 312 310 307 302 298 296 294 294 293 289 286 286 285
311 313 314 315 317 320 322 322 321 319 317 316 314 313 312 312 310 309 308 309 310 311 310 310 310 310 310 310 310 310 309 308 306 303 300 297 295 294 292 290 290 290
321 320 319 321 322 323 323 322 321 320 319 318 317 316 314 313 312 311 311 311 311 311 311 311 311 312 312 311 311 309 308 306 304 303 302 302 302 301 300 298 294 291
324 323 324 325 326 327 327 325 322 321 321 319 318 318 317 316 316 316 317 316 314 311 310 310 310 311 311 312 312 311 310 306 302 302 303 303 302 301 302 302 299 296
333 334 335 333 334 335 332 331 330 328 327 325 324 325 326 326 326 328 328 327 326 324 323 322 321 321 322 323 324 324 322 316 310 305 302 299 297 295 296 299 300 300
350 351 349 344 341 340 338 339 340 339 339 338 339 339 339 340 340 341 341 341 341 341 339 338 338 338 338 338 339 339 338 333 325 316 309 304 302 299 298 298 300 299
14 4 358 353 349 347 346 348 348 349 351 350 350 350 350 350 349 349 349 348 348 348 346 345 344 343 343 342 342 342 343 342 338 331 324 317 311 307 304 302 302 302
46 22 16 8 4 3 1 1 0 360 359 358 357 357 356 355 354 353 352 351 350 349 346 344 343 342 342 342 342 341 341 341 339 336 331 325 318 312 306 303 302 302
55 38 31 22 19 15 11 9 6 4 2 0 359 357 356 354 352 351 349 347 346 345 343 341 340 339 340 341 342 342 341 340 338 335 331 327 322 316 308 302 300 300
51 42 33 26 23 17 13 10 5 3 1 358 357 355 354 351 349 347 346 344 343 343 342 341 340 340 339 340 341 342 342 341 339 336 332 329 326 321 315 309 303 300
49 39 31 27 23 17 14 10 5 2 0 359 359 358 355 353 352 351 351 349 347 346 345 345 345 344 342 341 342 341 341 341 341 340 336 332 328 325 324 322 316 309
49 39 32 26 23 20 15 12 10 8 7 6 5 3 1 1 1 0 359 357 354 353 352 352 350 348 346 346 348 347 344 343 343 341 339 338 337 335 333 331 328 324
49 41 36 31 27 24 22 20 20 17 16 15 13 11 11 10 10 8 6 4 2 0 359 356 354 353 353 353 352 351 349 347 346 344 342 342 342 341 339 335 332 329
50 43 41 39 36 35 34 31 29 26 24 23 21 20 20 18 16 14 12 11 10 7 5 1 359 0 2 359 356 354 353 352 351 347 345 343 340 339 338 336 334 331
52 49 47 47 45 44 42 39 35 32 29 27 26 24 23 22 20 18 17 16 15 13 11 9 7 8 7 2 360 359 358 356 355 353 350 346 342 341 338 336 335 333
58 56 52 52 50 47 45 42 37 34 31 29 28 26 24 22 20 20 20 19 18 18 16 16 15 14 11 5 3 2 1 0 359 359 358 354 350 347 344 342 339 335
63 59 55 54 52 49 46 43 39 37 34 31 29 26 24 22 21 21 21 20 20 19 19 19 20 18 15 11 8 5 3 2 2 3 4 2 358 355 352 349 345 340
63 59 58 55 53 49 47 44 41 39 37 34 31 28 25 24 24 23 22 22 22 22 21 21 20 19 17 15 14 10 6 4 4 5 6 6 4 2 359 355 351 348
63 61 59 56 54 51 47 45 43 41 39 36 32 30 28 28 27 26 26 26 25 24 24 22 22 21 18 16 16 14 11 9 8 8 8 8 7 6 4 1 357 356
66 63 62 61 58 55 51 49 47 43 41 37 32 31 31 30 30 29 29 29 28 27 26 25 25 23 20 19 17 15 13 12 11 11 10 10 9 8 7 5 2 1
71 69 69 67 63 60 57 54 51 46 42 38 34 33 32 32 32 31 31 31 30 30 29 27 26 25 23 21 19 18 16 15 14 13 13 13 12 10 9 8 6 4
77 74 72 70 66 63 60 56 53 49 44 40 36 34 34 33 32 32 31 31 31 30 29 27 27 25 23 22 21 20 19 18 17 16 15 15 13 11 10 9 10 9
78 74 71 68 64 62 60 58 55 51 46 42 37 35 35 34 33 31 30 30 30 29 28 27 26 26 23 22 21 20 20 20 19 18 17 15 12 11 10 9 10 10
79 74 71 68 65 64 62 59 57 54 50 46 41 38 37 35 33 31 30 30 30 29 29 28 28 27 25 23 21 21 20 20 19 18 17 14 11 10 10 9 9 9
82 79 76 73 71 70 68 65 62 60 57 53 50 46 43 39 36 34 33 34 33 31 31 30 29 29 27 24 22 21 20 20 19 18 16 13 11 10 9 9 8 8